TimeMDT,TemperatureF,Dew PointF,Humidity,Sea Level PressureIn,VisibilityMPH,Wind Direction,Wind SpeedMPH,Gust SpeedMPH,PrecipitationIn,Events,Conditions,WindDirDegrees,DateUTC
12:15 AM,48.6,33.6,56,30.24,10.0,North,8.1,-,N/A,,Clear,360,2012-10-14 06:15:00
12:35 AM,49.8,34.7,56,30.25,10.0,North,8.1,-,N/A,,Clear,10,2012-10-14 06:35:00
12:55 AM,50.4,35.2,56,30.25,10.0,North,8.1,-,N/A,,Clear,360,2012-10-14 06:55:00
1:15 AM,48.9,35.1,59,30.26,10.0,NNE,6.9,-,N/A,,Clear,20,2012-10-14 07:15:00
1:35 AM,47.1,34.5,62,30.26,10.0,NE,5.8,-,N/A,,Clear,40,2012-10-14 07:35:00
1:55 AM,48.0,34.9,60,30.27,10.0,NNE,5.8,-,N/A,,Clear,30,2012-10-14 07:55:00
2:15 AM,45.1,33.8,65,30.28,10.0,West,6.9,-,N/A,,Clear,270,2012-10-14 08:15:00
2:35 AM,45.5,32.9,61,30.28,10.0,West,4.6,-,N/A,,Clear,260,2012-10-14 08:35:00
2:55 AM,45.5,33.3,62,30.29,10.0,Calm,Calm,-,N/A,,Clear,0,2012-10-14 08:55:00
3:15 AM,45.3,32.9,62,30.29,10.0,Calm,Calm,-,N/A,,Clear,0,2012-10-14 09:15:00
3:35 AM,46.2,33.3,61,30.29,10.0,Calm,Calm,-,N/A,,Clear,0,2012-10-14 09:35:00
3:55 AM,41.5,32.0,69,30.29,10.0,Calm,Calm,-,N/A,,Clear,0,2012-10-14 09:55:00
4:15 AM,41.9,32.0,68,30.29,10.0,NNW,8.1,-,N/A,,Clear,330,2012-10-14 10:15:00
4:35 AM,42.6,32.5,68,30.30,10.0,West,4.6,-,N/A,,Clear,280,2012-10-14 10:35:00
5:15 AM,43.2,32.7,67,30.30,10.0,NNW,8.1,-,N/A,,Clear,330,2012-10-14 11:15:00
5:35 AM,43.2,32.5,66,30.32,10.0,NE,5.8,-,N/A,,Clear,40,2012-10-14 11:35:00
5:55 AM,40.5,32.0,72,30.33,10.0,Calm,Calm,-,N/A,,Clear,0,2012-10-14 11:55:00
6:15 AM,41.2,32.4,71,30.33,10.0,NW,5.8,-,N/A,,Clear,310,2012-10-14 12:15:00
6:35 AM,40.5,32.5,73,30.33,10.0,WNW,3.5,-,N/A,,Clear,300,2012-10-14 12:35:00
6:55 AM,39.6,32.0,74,30.33,10.0,NNW,5.8,-,N/A,,Clear,330,2012-10-14 12:55:00
7:15 AM,39.4,32.4,76,30.34,10.0,NNW,4.6,-,N/A,,Clear,330,2012-10-14 13:15:00
7:35 AM,39.4,32.0,75,30.35,10.0,West,3.5,-,N/A,,Clear,280,2012-10-14 13:35:00
7:55 AM,42.4,32.9,69,30.35,10.0,NW,5.8,-,N/A,,Clear,310,2012-10-14 13:55:00
8:15 AM,46.9,34.9,63,30.35,10.0,NW,4.6,-,N/A,,Clear,320,2012-10-14 14:15:00
8:35 AM,50.0,35.8,58,30.36,10.0,NW,4.6,-,N/A,,Clear,310,2012-10-14 14:35:00
8:55 AM,50.0,35.6,58,30.36,10.0,WNW,4.6,-,N/A,,Clear,290,2012-10-14 14:55:00
9:15 AM,51.3,34.9,54,30.37,10.0,NW,6.9,-,N/A,,Clear,320,2012-10-14 15:15:00
9:35 AM,53.8,35.2,50,30.37,10.0,NW,4.6,-,N/A,,Clear,320,2012-10-14 15:35:00
9:55 AM,56.5,36.0,46,30.37,10.0,NNW,4.6,-,N/A,,Clear,330,2012-10-14 15:55:00
10:15 AM,58.6,36.1,43,30.37,10.0,NNW,5.8,-,N/A,,Clear,340,2012-10-14 16:15:00
10:35 AM,59.5,36.5,42,30.37,10.0,NW,6.9,-,N/A,,Clear,310,2012-10-14 16:35:00
10:55 AM,61.0,36.3,40,30.37,10.0,NW,3.5,-,N/A,,Clear,320,2012-10-14 16:55:00
11:15 AM,61.7,35.8,38,30.37,10.0,Calm,Calm,-,N/A,,Clear,0,2012-10-14 17:15:00
11:35 AM,63.5,35.8,36,30.37,10.0,Calm,Calm,-,N/A,,Clear,0,2012-10-14 17:35:00
11:55 AM,64.4,35.8,35,30.36,10.0,North,8.1,-,N/A,,Clear,10,2012-10-14 17:55:00
12:15 PM,66.2,36.0,33,30.36,10.0,NE,3.5,-,N/A,,Clear,40,2012-10-14 18:15:00
12:35 PM,66.6,35.8,32,30.35,10.0,NW,4.6,-,N/A,,Clear,320,2012-10-14 18:35:00
12:55 PM,67.3,35.4,31,30.35,10.0,NNE,4.6,-,N/A,,Clear,30,2012-10-14 18:55:00
1:15 PM,67.8,35.2,30,30.33,10.0,Calm,Calm,-,N/A,,Clear,0,2012-10-14 19:15:00
1:35 PM,68.4,35.1,29,30.32,10.0,Calm,Calm,-,N/A,,Clear,0,2012-10-14 19:35:00
1:55 PM,69.6,34.7,28,30.31,10.0,Calm,Calm,-,N/A,,Clear,0,2012-10-14 19:55:00
2:15 PM,70.3,34.9,27,30.29,10.0,North,6.9,-,N/A,,Clear,10,2012-10-14 20:15:00
2:35 PM,71.8,34.2,25,30.29,10.0,ESE,3.5,-,N/A,,Clear,110,2012-10-14 20:35:00
2:55 PM,71.6,32.9,24,30.28,10.0,SSE,4.6,-,N/A,,Clear,150,2012-10-14 20:55:00
3:15 PM,71.1,31.6,23,30.26,10.0,North,3.5,-,N/A,,Clear,350,2012-10-14 21:15:00
3:35 PM,72.3,32.2,23,30.25,10.0,West,4.6,-,N/A,,Clear,280,2012-10-14 21:35:00
3:55 PM,73.0,31.8,22,30.25,10.0,Calm,Calm,-,N/A,,Clear,0,2012-10-14 21:55:00
4:15 PM,73.0,29.1,20,30.24,10.0,South,5.8,-,N/A,,Clear,190,2012-10-14 22:15:00
4:35 PM,73.0,28.6,19,30.23,10.0,SSW,4.6,-,N/A,,Clear,210,2012-10-14 22:35:00
4:55 PM,72.7,25.9,17,30.23,10.0,Calm,Calm,-,N/A,,Clear,0,2012-10-14 22:55:00
5:15 PM,72.5,27.9,19,30.23,10.0,WSW,3.5,-,N/A,,Clear,240,2012-10-14 23:15:00
5:35 PM,71.8,25.9,18,30.23,10.0,Calm,Calm,-,N/A,,Clear,0,2012-10-14 23:35:00
5:55 PM,71.6,27.0,19,30.23,10.0,West,3.5,-,N/A,,Clear,280,2012-10-14 23:55:00
6:15 PM,70.3,26.8,20,30.23,10.0,Calm,Calm,-,N/A,,Clear,0,2012-10-15 00:15:00
6:35 PM,69.3,26.4,20,30.23,10.0,Calm,Calm,-,N/A,,Clear,0,2012-10-15 00:35:00
6:55 PM,63.9,26.2,24,30.23,10.0,SW,3.5,-,N/A,,Clear,220,2012-10-15 00:55:00
7:15 PM,62.1,26.2,26,30.23,10.0,Calm,Calm,-,N/A,,Clear,0,2012-10-15 01:15:00
7:35 PM,61.2,26.2,26,30.25,10.0,Calm,Calm,-,N/A,,Clear,0,2012-10-15 01:35:00
7:55 PM,63.7,27.3,25,30.25,10.0,Calm,Calm,-,N/A,,Clear,0,2012-10-15 01:55:00
8:15 PM,58.6,24.8,27,30.25,10.0,Calm,Calm,-,N/A,,Clear,0,2012-10-15 02:15:00
8:35 PM,55.4,24.4,30,30.25,10.0,Calm,Calm,-,N/A,,Clear,0,2012-10-15 02:35:00
8:55 PM,57.2,25.3,29,30.26,10.0,Calm,Calm,-,N/A,,Clear,0,2012-10-15 02:55:00
9:15 PM,58.5,25.5,28,30.26,10.0,Calm,Calm,-,N/A,,Clear,0,2012-10-15 03:15:00
9:35 PM,53.8,23.5,31,30.26,10.0,Calm,Calm,-,N/A,,Clear,0,2012-10-15 03:35:00
9:55 PM,54.5,25.5,33,30.27,10.0,NE,3.5,-,N/A,,Clear,50,2012-10-15 03:55:00
10:15 PM,54.3,26.4,34,30.27,10.0,ENE,3.5,-,N/A,,Clear,60,2012-10-15 04:15:00
10:35 PM,53.4,26.1,35,30.27,10.0,Calm,Calm,-,N/A,,Clear,0,2012-10-15 04:35:00
11:15 PM,50.2,25.3,38,30.28,10.0,SSW,4.6,-,N/A,,Clear,200,2012-10-15 05:15:00
11:35 PM,52.2,27.1,38,30.28,10.0,Calm,Calm,-,N/A,,Clear,0,2012-10-15 05:35:00
11:55 PM,52.7,27.5,38,30.27,10.0,SSW,4.6,-,N/A,,Clear,200,2012-10-15 05:55:00